Content
SEND FEEDBACK

Daily
Averages
Monthly
Summary
United States of America

EL PASO, TEXAS


Home > North America > United States > Texas
Elevation: 3918 feet     Latitude: 31 48N     Longitude: 106 24W

WEATHER
 
SELECT A DAY
Number of Records: 172,185;   Date Range: 1/1/95 - 9/16/14
 
SHARE

PRINT THIS DATA

[ ← Previous Day ]
WEATHER ALMANAC - SEPTEMBER 1, 2013
[ Next Day → ]
[ °C ]   °F
Weather ElementAverageHighLow
Temperature86.6 °F97 °F (4:51 pm)75 °F (5:51 am)
Dewpoint51.2 °F60.1 °F (7:51 am)39.9 °F (5:51 pm)
Humidity32.7 %56 % (7:51 am)14 % (5:51 pm)
Barometer29.75 in29.81 in (9:51 am)29.69 in (4:51 pm)
Wind Speed5.2 mph9.2 mph (2:51 am)
Wind Gust19.6 mph (2:51 pm)
Weather ElementAverage
Visibility10 mi
Wind DirectionE (93.9 °)

Weather ElementTotal
Precipitation---
Cooling Degree Days21 (Base 65)
Growing Degree Days36 (Base 50)
Averaged from 23 records on September 1, 2013
WEATHER CONDITIONS BREAKOUT
WIND DIRECTION BREAKOUT
WEATHER BY HOUR - SEPTEMBER 1, 2013
[ °C ]   °F
Local TimeTemperatureDewpointHumidityBarometerVisibilityWind DirectionWind SpeedGust SpeedPrecipitationEventsConditions
1:51 AM86.0 °F53.1 °F32 %29.72 in10.0 miWNW (290°)8.1 mphScattered Clouds
2:51 AM79.0 °F55.9 °F45 %29.73 in10.0 miEast (100°)9.2 mphScattered Clouds
3:51 AM75.9 °F57.0 °F52 %29.75 in10.0 miESE (110°)4.6 mphScattered Clouds
4:51 AM75.9 °F57.0 °F52 %29.74 in10.0 miCalmPartly Cloudy
5:51 AM75.0 °F57.9 °F55 %29.76 in10.0 miSSE (150°)3.5 mphPartly Cloudy
6:51 AM75.9 °F57.9 °F54 %29.77 in10.0 miCalmScattered Clouds
7:51 AM77.0 °F60.1 °F56 %29.78 in10.0 miSE (130°)5.8 mphScattered Clouds
8:51 AM80.1 °F59.0 °F48 %29.80 in10.0 miESE (110°)6.9 mphScattered Clouds
9:51 AM82.9 °F59.0 °F44 %29.81 in10.0 miCalmScattered Clouds
10:51 AM89.1 °F57.0 °F34 %29.79 in10.0 miVariable3.5 mphPartly Cloudy
11:51 AM91.0 °F55.0 °F29 %29.78 in10.0 miNNW (340°)4.6 mphPartly Cloudy
12:51 PM93.9 °F55.9 °F28 %29.76 in10.0 miVariable3.5 mphPartly Cloudy
1:51 PM95.0 °F53.1 °F24 %29.74 in10.0 miCalmPartly Cloudy
2:51 PM95.0 °F50.0 °F22 %29.73 in10.0 miSSE (160°)8.1 mph19.6 mphPartly Cloudy
3:51 PM96.1 °F43.0 °F16 %29.71 in10.0 miESE (120°)6.9 mphPartly Cloudy
4:51 PM97.0 °F42.1 °F15 %29.69 in10.0 miENE (60°)4.6 mphScattered Clouds
5:51 PM97.0 °F39.9 °F14 %29.70 in10.0 miENE (70°)5.8 mphScattered Clouds
6:51 PM95.0 °F43.0 °F17 %29.70 in10.0 miEast (100°)6.9 mphScattered Clouds
7:51 PM91.9 °F42.1 °F18 %29.72 in10.0 miEast (100°)9.2 mphScattered Clouds
8:51 PM89.1 °F42.1 °F19 %29.75 in10.0 miEast (90°)8.1 mphPartly Cloudy
9:51 PM86.0 °F44.1 °F23 %29.77 in10.0 miEast (90°)8.1 mphPartly Cloudy
10:51 PM82.4 °F46.4 °F28 %29.78 in10.0 miENE (70°)3.5 mphPartly Cloudy
11:51 PM84.9 °F46.0 °F26 %29.79 in10.0 miENE (70°)8.1 mphClear
Hourly data recorded from KELP, located miles away from El Paso, Texas







STORIES FROM OUR PARTNERS